Regional Weather Roundup
Issued by NWS Green Bay, WI

Home | Current Version | Previous Version | Graphics & Text | Print | Product List | Glossary Off
Versions: 1 2 3 4 5 6 7 8 9 10 11 12 13 14 15 16 17 18 19 20 21 22 23 24 25 26 27 28 29 30 31 32 33 34 35 36 37 38 39 40 41 42 43 44 45 46 47 48 49 50

000
ASUS43 KGRB 040559
RWRGRB

NORTH-CENTRAL AND NORTHEAST WISCONSIN REGIONAL WEATHER ROUNDUP
NATIONAL WEATHER SERVICE GREEN BAY WI
100 AM CDT MON MAY 04 2015

WIZ005-009-010>012-018-019-040700-
NORTH CENTRAL WISCONSIN

CITY           SKY/WX    TMP DP  RH WIND       PRES   REMARKS
IRONWOOD       CLOUDY    48  46  93 W3        29.91R
MANITOWISH WTR NOT AVBL
ARBOR VITAE    NOT AVBL
EAGLE RIVER    NOT AVBL
LAND O LAKES   NOT AVBL
RHINELANDER    CLOUDY    53  50  89 CALM      29.90F
PHILLIPS       NOT AVBL
ANTIGO         NOT AVBL
TOMAHAWK       NOT AVBL
MERRILL        NOT AVBL
$$

WIZ013-073-040700-
NORTHEAST WISCONSIN

CITY           SKY/WX    TMP DP  RH WIND       PRES   REMARKS
IRON MOUNTAIN  CLOUDY    55  53  93 S5        29.85F
MARINETTE      CLOUDY    59  55  88 W3        29.89R
$$

WIZ017-030-035>037-045-040700-
CENTRAL WISCONSIN

CITY           SKY/WX    TMP DP  RH WIND       PRES   REMARKS
MEDFORD        NOT AVBL
WAUSAU         CLOUDY    57  55  93 NW3       29.87S
MOSINEE        NOT AVBL
MARSHFIELD     CLOUDY    58  50  76 E3        29.88F
WISC RAPIDS    LGT RAIN  58  55  90 SE7       29.88F
STEVENS POINT  NOT AVBL
WAUPACA        NOT AVBL
SHAWANO        NOT AVBL
CLINTONVILLE   NOT AVBL
$$

WIZ038-039-048-051-040700-
FOX VALLEY

CITY           SKY/WX    TMP DP  RH WIND       PRES   REMARKS
NWS GREEN BAY  CLOUDY    61  57  87 NE9       29.89F
APPLETON       NOT AVBL
OSHKOSH        RAIN      62  57  83 N15       29.89R
FOND DU LAC    TSTM      61  57  87 W13       29.90R
$$

WIZ022-050-052-040700-
EAST CENTRAL WISCONSIN

CITY           SKY/WX    TMP DP  RH WIND       PRES   REMARKS
STURGEON BAY   CLOUDY    59  54  82 E3        29.91F
MANITOWOC      LGT RAIN  59  54  82 S3        29.89R
SHEBOYGAN      CLOUDY    65  54  67 NW8G18    29.88R
$$

LMZ563-521-522-541>543-040700-
LAKESHORE

STATION/POSITION TIME  TEMP    WIND        PRES    VSBY  WAVE
                       AIR SEA DIR/SP/G                  HT/PER
                 (UTC) (F)     (DEG/KT/KT) (MB)    (MI)  (FT/S)
SHEBOYGAN LKSHOR 0500   49     180/ 11/ 11 1011.5F
KEWAUNEE LKSHORE 0500           CALM  /  2   N/A
NORTHPORT PIER   0500   54     160/  7/  9 1012.2S
SISTER BAY LKSHO 0500   53     150/  7/  8   N/A
CHAMBERS ISLAND  0500   55     140/  3/  7 1011.9F
MENOMINEE LKSHOR 0500          150/  8/  9   N/A
$$



USA.gov is the U.S. government's official web portal to all federal, state and local government web resources and services.